Tracking 18793 objects as of 22-September-2017
HD Live streaming from Space Station
objects crossing your sky now

COSMOS 1241

Track COSMOS 1241 now!
10-day predictions
COSMOS 1241 is classified as:


NORAD ID: 12149
Int'l Code: 1981-006A
Perigee: 981.6 km
Apogee: 1,016.3 km
Inclination: 65.8 °
Period: 104.9 minutes
Semi major axis: 7369 km
RCS: 1.4995 m2 (large)
Launch date: January 21, 1981
Source: Commonwealth of Independent States (former USSR) (CIS)
Launch site: PLESETSK MISSILE AND SPACE COMPLEX (PKMTR)
aabbcc
Your satellite tracking list
Your tracking list is empty





NASA's NSSDC Master Catalog

Two Line Element Set (TLE):
1 12149U 81006A   17265.00028412 -.00000098  00000-0 -19816-4 0  9998
2 12149  65.8239  58.2691 0023485 256.1425 237.2889 13.72165134837314
Source of the keplerian elements: AFSPC